Theta_e
356 357 357 356 356 356 353 350 350 355 356 357 358 357 357 355 354 358 359 359 356 356 358 360 359 360 358 366 359 354 352 350 358 351 352 358 362 359 357 360 359 358 356
357 358 357 356 355 354 354 354 356 356 357 358 358 358 359 359 359 358 355 356 355 355 357 351 354 359 359 363 355 364 362 356 361 349 357 353 363 364 362 362 358 356 357
358 357 357 355 353 354 354 355 357 357 358 357 359 359 359 359 358 358 358 354 354 356 355 349 350 355 358 353 356 354 352 354 355 350 352 360 360 360 361 364 363 361 357
357 356 355 355 357 357 358 358 357 358 358 358 360 361 360 359 357 353 355 352 352 349 351 344 347 354 356 357 357 359 362 353 362 359 350 354 363 362 359 356 361 371 369
356 355 355 357 357 357 357 357 358 359 359 360 360 360 359 357 354 354 354 349 345 342 343 345 347 347 344 347 351 357 357 355 350 356 347 347 357 359 358 352 362 355 360
357 355 357 357 358 357 359 359 361 360 360 361 360 360 358 354 337 344 351 349 349 345 344 344 344 342 341 338 338 340 354 356 354 350 359 351 356 361 361 365 355 357 353
357 356 357 358 358 359 359 361 359 359 362 361 360 358 357 356 333 336 341 354 355 351 348 344 341 343 341 341 336 337 337 336 338 359 356 359 357 358 359 359 359 359 359
356 356 359 360 359 360 360 360 360 363 360 359 358 358 356 352 330 332 338 356 354 353 352 349 341 338 340 342 342 343 346 346 347 347 354 354 358 360 358 360 356 356 353
355 355 358 360 359 360 359 360 359 358 358 358 357 357 355 349 326 329 337 351 350 353 352 351 348 345 329 330 344 342 342 343 327 328 332 333 334 334 342 348 345 343 340
357 357 359 360 361 360 362 364 361 360 358 356 354 355 346 352 322 324 332 343 344 345 352 351 333 343 321 321 338 336 333 334 339 337 339 335 335 335 330 345 339 333 330
362 360 360 362 363 364 364 361 360 359 358 356 353 353 352 349 338 320 322 343 338 340 341 344 343 319 317 317 317 336 331 332 331 337 337 339 341 342 340 342 343 338 333
362 362 362 362 360 360 363 362 360 358 355 353 352 349 348 348 331 317 319 321 332 340 341 341 338 315 313 314 318 318 319 322 331 331 333 334 335 336 338 340 344 343 342
360 359 358 359 359 357 351 348 355 356 351 350 347 345 344 344 343 318 317 320 322 336 340 333 316 311 312 316 316 317 315 325 327 327 328 331 334 336 341 341 341 342 340
352 353 356 354 350 349 340 332 334 338 349 346 344 343 342 340 339 333 329 325 320 328 326 334 327 323 321 325 322 321 325 328 329 325 326 330 335 336 335 335 332 331 329
347 345 347 349 346 346 335 331 334 345 343 343 344 343 342 338 337 328 326 332 330 327 331 336 331 330 329 327 325 326 327 328 328 333 332 331 331 332 332 332 329 327 323
339 341 339 341 340 342 339 331 315 316 312 312 314 332 340 324 313 311 307 306 308 311 329 330 328 329 328 326 322 324 324 325 326 329 329 328 327 327 327 328 326 323 319
342 346 341 333 338 338 337 335 335 327 309 310 306 307 309 320 308 307 303 303 303 311 324 326 328 328 327 324 322 322 322 323 323 322 325 325 326 326 323 324 323 321 319
341 322 340 338 338 338 338 337 337 337 335 335 313 311 305 303 304 302 301 304 314 315 321 324 324 325 324 322 323 322 324 323 324 320 321 322 323 322 321 320 320 319 318
344 344 341 341 339 335 340 340 337 334 332 334 333 314 307 301 300 302 300 319 316 318 322 322 322 322 323 322 322 321 323 324 326 325 323 322 321 320 320 320 319 312 314
344 329 332 337 337 336 335 333 330 330 329 329 327 323 312 308 309 306 309 318 320 322 321 321 323 325 323 321 320 320 320 321 326 327 325 323 322 321 319 319 318 317 317
339 337 331 336 334 333 330 330 330 331 331 327 326 318 305 315 316 313 313 317 322 324 323 326 330 326 322 321 322 321 322 323 325 326 325 323 322 319 320 320 319 319 318
337 336 335 335 334 333 332 331 331 331 331 325 322 313 302 319 318 315 316 317 316 317 316 317 316 315 314 315 316 315 316 320 323 324 323 322 321 321 320 319 319 318 318
336 338 336 336 337 328 334 334 332 331 331 332 330 326 317 322 320 317 317 317 317 316 316 314 314 313 314 314 315 316 317 318 321 323 322 321 320 320 320 319 319 318 317
334 333 332 332 333 333 335 333 333 320 329 332 333 329 328 327 327 327 326 325 323 323 321 320 318 317 317 320 319 319 319 320 322 322 323 321 319 316 318 318 318 318 317
329 329 328 327 328 331 330 329 330 330 330 330 331 333 329 325 328 328 327 324 323 319 320 319 319 318 318 317 318 319 312 301 316 310 323 323 321 321 319 317 317 317 317
324 325 325 326 326 326 327 329 330 330 329 328 331 333 330 331 334 330 328 324 319 320 323 319 318 318 317 317 317 310 296 290 305 293 319 321 321 319 319 319 319 316 316
Wind_Speed
12 12 11 11 11 11 12 11 11 13 11 11 10 11 10 11 11 10 11 11 11 12 12 12 12 11 7 8 7 7 6 6 4 6 9 9 11 11 10 12 11 12 12
11 11 11 11 12 13 11 13 13 11 11 11 10 10 10 10 10 10 10 9 11 12 12 9 9 9 9 5 9 6 6 5 3 6 3 7 8 11 10 11 11 12 12
12 11 11 11 11 10 11 11 12 11 10 10 10 9 10 10 7 8 6 5 6 8 7 2 6 10 8 7 9 7 8 6 6 5 5 3 4 8 10 9 10 11 10
11 11 10 11 12 12 11 11 11 10 10 10 10 10 10 9 8 4 6 4 1 2 3 2 7 7 7 7 7 9 6 6 7 4 5 5 4 8 9 10 8 7 5
12 12 13 12 11 10 11 11 11 11 10 9 9 8 9 9 8 8 7 7 6 5 2 3 1 5 5 3 4 5 6 7 6 7 7 8 7 4 6 7 6 7 6
13 12 12 12 11 11 11 11 10 10 11 9 10 9 9 8 10 6 6 10 9 8 7 3 3 4 3 3 3 4 3 7 7 7 6 7 7 6 5 5 6 4 6
13 13 13 13 12 11 10 11 11 12 9 10 9 8 8 6 6 7 8 9 8 10 9 7 6 4 6 5 5 4 1 3 3 7 7 7 7 7 7 7 7 6 4
14 13 13 14 14 13 12 11 11 9 10 9 9 9 9 7 8 6 6 8 10 10 9 10 9 9 6 5 5 4 4 4 5 5 4 4 5 5 5 5 6 5 3
16 15 14 13 14 14 13 13 12 11 11 10 10 10 9 9 11 10 7 7 7 9 9 10 9 10 8 5 6 5 5 5 5 3 4 5 4 6 2 6 7 7 7
14 15 15 14 14 14 14 13 12 12 12 11 11 11 9 9 9 8 8 7 7 7 8 8 3 6 11 8 5 5 5 6 6 5 5 5 6 4 2 6 5 7 7
12 14 15 15 14 13 12 11 12 12 10 11 11 10 10 10 10 9 7 7 6 7 6 8 7 9 9 5 2 4 4 5 4 6 7 7 7 8 7 7 5 6 5
11 12 12 12 11 10 10 10 11 11 12 12 11 10 9 9 5 10 9 7 5 6 6 6 8 13 9 8 7 7 3 5 6 7 6 7 7 7 7 6 4 4 3
8 11 11 11 9 5 1 3 5 9 10 11 11 11 9 6 8 4 8 6 5 5 5 5 18 12 8 7 6 7 7 7 6 7 7 7 6 5 6 5 5 4 4
8 6 10 10 8 7 1 9 6 19 14 12 9 11 10 5 5 9 7 6 4 7 7 7 7 6 3 3 9 7 6 5 4 7 6 5 5 5 7 7 7 7 6
6 5 7 7 8 8 11 11 13 21 13 11 11 11 10 9 10 6 7 6 9 10 10 8 8 9 8 7 6 7 6 3 3 4 4 5 6 7 6 6 5 6 6
10 8 9 6 7 7 5 6 12 5 9 9 6 7 8 7 11 12 9 4 7 12 8 8 9 9 9 8 7 6 5 5 6 4 5 7 6 6 6 6 5 5 6
6 4 4 6 6 6 5 5 4 8 6 8 9 9 10 12 16 19 15 9 7 9 9 9 9 10 10 9 7 6 7 6 1 1 1 3 2 8 6 7 7 6 6
2 5 3 3 3 2 2 5 6 8 7 6 6 7 10 9 15 16 15 13 5 7 10 10 9 9 8 8 8 8 8 8 8 7 8 9 9 8 8 8 7 8 8
3 3 2 2 2 1 3 4 3 4 6 5 2 2 4 3 4 8 19 12 11 11 9 8 7 9 8 9 9 9 9 10 10 10 10 9 8 8 9 8 9 7 6
2 5 5 2 2 3 3 2 1 3 4 5 3 3 3 3 3 5 8 7 7 7 8 9 9 8 7 6 6 7 8 10 10 10 9 9 9 8 9 9 9 9 10
6 3 4 3 2 2 1 3 3 3 4 4 3 2 7 4 4 6 7 5 4 3 1 5 1 0 3 4 5 6 8 9 9 9 9 9 8 9 9 8 8 9 9
3 2 2 3 3 3 2 2 2 2 3 2 2 4 6 4 5 5 3 4 2 3 3 4 3 2 2 3 3 3 6 9 10 9 10 10 9 10 9 9 8 8 9
3 2 2 3 2 3 4 4 4 3 3 5 4 4 5 5 5 4 6 6 5 5 6 6 5 4 3 3 5 6 8 8 9 10 11 10 10 10 9 10 9 9 10
4 6 6 5 4 5 3 3 1 2 3 6 4 6 8 6 7 8 7 7 7 8 7 7 7 9 8 9 10 11 11 9 9 9 12 10 11 10 10 10 9 10 10
5 5 5 4 4 5 2 1 1 3 2 4 4 6 6 7 8 9 9 8 9 8 10 10 9 13 16 15 12 12 10 12 9 9 9 12 13 13 11 10 11 10 13
6 6 6 5 4 5 5 4 3 4 2 2 4 5 5 8 7 6 7 7 5 8 9 6 8 11 11 11 13 13 14 11 9 10 10 10 12 12 11 13 15 10 10
Wind_Direction
196 190 191 194 192 197 193 199 209 224 214 218 227 235 222 217 227 237 256 259 241 233 229 218 209 203 202 225 211 206 213 221 205 279 168 149 184 206 182 197 218 210 200
182 181 184 183 187 197 195 198 209 213 216 221 221 223 220 217 222 229 253 249 244 228 220 206 219 210 212 220 215 219 173 230 192 193 253 158 201 194 207 191 213 215 219
176 183 182 182 187 198 196 203 199 207 213 212 214 214 213 214 217 227 246 245 266 244 203 189 229 221 201 209 247 195 210 218 212 232 187 188 191 197 195 205 208 233 218
178 171 175 188 196 194 193 198 190 196 207 212 204 205 205 200 198 227 187 205 168 293 155 337 280 240 222 207 247 238 273 230 205 211 201 180 194 194 199 198 199 205 205
176 176 177 179 178 179 180 184 197 193 200 206 197 199 211 205 196 183 179 159 147 127 85 307 183 354 349 296 234 229 230 232 250 211 209 203 203 198 199 226 186 204 186
177 176 168 172 172 181 182 192 198 198 205 203 201 197 198 221 97 122 202 184 172 164 157 147 61 26 332 254 128 72 213 222 227 235 242 233 215 213 213 243 205 197 202
177 175 175 172 178 187 189 194 197 201 193 202 200 195 197 196 131 177 204 212 207 195 183 167 159 163 187 208 132 160 71 65 13 253 245 237 222 217 210 219 213 226 235
179 181 183 177 178 184 186 189 193 201 199 201 198 196 188 154 151 172 197 219 183 185 188 175 175 177 184 183 203 197 200 196 204 242 212 227 220 195 212 207 191 168 167
183 186 186 191 186 182 191 191 189 191 197 199 197 197 202 162 161 165 199 199 200 170 178 183 187 185 159 196 202 204 219 225 120 8 38 49 50 40 25 181 186 204 214
188 186 186 192 198 196 189 190 195 195 198 196 195 196 194 187 172 170 195 220 195 213 183 182 89 192 163 188 228 219 231 242 241 191 189 179 186 149 303 257 223 223 231
188 188 186 192 194 202 194 192 192 209 204 207 197 196 195 204 171 174 189 228 228 199 221 188 184 133 145 157 295 238 253 286 184 239 226 208 198 185 200 211 231 267 237
198 193 189 199 198 190 197 190 193 196 205 203 200 200 197 200 202 185 180 227 354 245 232 212 131 145 163 164 197 116 97 273 227 218 212 209 198 205 194 175 165 259 27
193 198 188 191 188 167 159 347 265 226 228 218 209 208 201 179 192 153 163 171 186 234 263 57 114 134 155 161 149 152 189 215 226 223 220 215 210 200 128 145 179 165 179
168 190 194 184 179 159 117 96 351 307 255 235 219 229 196 177 201 188 185 196 209 217 159 141 138 179 219 72 147 184 220 235 247 230 218 211 195 156 201 194 194 197 213
189 210 202 208 188 194 172 184 185 237 254 256 229 227 202 191 200 141 167 190 201 214 189 173 187 196 199 197 208 205 201 212 242 272 199 188 194 194 195 183 203 195 222
253 251 254 212 196 201 199 140 116 192 299 276 306 232 199 199 160 174 204 206 123 148 197 197 207 207 213 201 205 210 214 199 209 221 216 203 196 205 213 203 211 215 227
276 258 226 214 200 204 140 113 202 197 180 237 217 217 219 191 191 173 182 180 177 158 218 219 219 209 203 201 202 210 205 208 195 212 168 217 215 215 192 213 213 215 234
269 265 224 216 198 136 114 209 234 264 258 237 196 229 230 217 190 181 167 153 172 224 212 218 215 215 206 200 198 201 202 197 203 200 220 214 209 217 212 221 216 222 212
253 161 163 129 144 278 290 267 244 245 259 283 159 159 71 93 226 196 169 192 185 190 212 219 206 217 200 208 213 217 219 212 211 206 214 219 211 217 218 218 222 228 234
82 86 85 78 56 31 20 323 326 253 245 249 248 245 137 129 167 165 190 206 184 190 192 221 227 219 217 217 218 224 223 224 213 216 223 223 223 219 220 216 231 229 201
104 126 85 127 127 118 233 268 272 295 290 293 303 160 162 195 173 149 171 172 241 206 16 234 173 246 232 234 233 234 238 234 220 220 222 224 225 225 224 227 227 224 238
66 66 131 159 161 146 163 221 246 240 252 203 177 145 167 148 141 120 117 139 146 80 52 45 54 32 360 302 288 292 279 257 235 219 224 226 218 221 229 223 234 237 238
82 84 67 85 83 128 201 189 207 225 226 202 168 164 185 211 200 199 190 185 185 186 188 178 175 205 218 243 281 294 269 254 253 242 231 228 225 223 221 230 233 237 233
26 39 42 27 29 339 6 0 265 234 231 275 239 189 192 204 201 214 205 188 194 203 199 194 200 207 206 224 224 222 244 248 242 241 239 235 229 223 236 235 240 239 237
50 75 86 66 12 64 21 9 263 271 247 253 266 261 176 224 224 196 196 200 203 212 214 211 209 212 219 222 218 220 242 241 229 241 240 233 241 238 236 228 233 232 229
46 42 41 43 34 25 26 31 30 86 167 217 222 224 218 241 251 204 201 202 202 218 223 210 212 216 219 223 221 215 227 233 218 240 238 228 231 233 233 229 231 229 229